Fort Lauderdale, FL

4:18 AM EST on December 07, 2019 (GMT -0500)
Fort Lauderdale Executive

Weather History for KFXE - October, 2019

Change the Weather History Date:

Sunday, October 13, 2019

  Actual Average Record
Temperature  
Mean Temperature 82 °F -  
Max Temperature 86 °F 86 °F 93 °F (1986)
Min Temperature 77 °F 71 °F 61 °F (1992)
Cooling Degree Days 16    
Growing Degree Days 32 (Base 50)    
Moisture  
Dew Point 71 °F    
Average Humidity 75    
Maximum Humidity 90    
Minimum Humidity 63    
Precipitation  
Precipitation 0.34 in - - ()
Sea Level Pressure  
Sea Level Pressure 30.00 in    
Wind  
Wind Speed 10 mph ()    
Max Wind Speed 16 mph    
Max Gust Speed -    
Visibility 9.5 miles    
Events Rain    
Averages and records for this station are not official NWS values.
T = Trace of Precipitation, MM = Missing Value Source: Averaged Metar Reports

Daily Weather History Graph

Daily Weather History Graph

Search for Another Location

Airport or City:

Astronomy

Oct. 13, 2019 Rise Set
Actual Time 7:18 AM EDT 6:54 PM EDT
Civil Twilight 6:55 AM EDT 7:18 PM EDT
Nautical Twilight 6:28 AM EDT 7:44 PM EDT
Astronomical Twilight 6:01 AM EDT 8:11 PM EDT
Moon 7:11 PM EDT (10/13) 6:59 AM EDT (10/13)
Length of Visible Light 12h 22m
Length of Day
11h 36m
Full, 100% of the Moon is Illuminated
Oct 13
Full
Oct 13
Full
Oct 21
Last Quarter
Oct 27
New
Nov 4
First Quarter

Hourly Weather History & Observations

Time (EDT) Temp. Heat Index Dew Point Humidity Pressure Visibility Wind Dir Wind Speed Gust Speed Precip Events Conditions
12:53 AM 78.1 °F - 68.0 °F 71% 30.01 in 10.0 mi East 12.7 mph - N/A   Clear
1:53 AM 78.1 °F - 66.9 °F 68% 30.01 in 10.0 mi East 11.5 mph - N/A   Clear
2:53 AM 78.1 °F - 68.0 °F 71% 29.98 in 10.0 mi East 12.7 mph - N/A   Scattered Clouds
3:53 AM 79.0 °F - 69.1 °F 72% 29.96 in 10.0 mi East 11.5 mph - N/A   Mostly Cloudy
4:53 AM 78.1 °F - 69.1 °F 74% 29.98 in 10.0 mi East 10.4 mph - N/A   Scattered Clouds
5:53 AM 79.0 °F - 69.1 °F 72% 29.98 in 10.0 mi East 8.1 mph - N/A   Mostly Cloudy
6:53 AM 77.0 °F - 70.0 °F 79% 29.99 in 10.0 mi East 8.1 mph - N/A   Scattered Clouds
7:53 AM 80.1 °F 83.6 °F 71.1 °F 74% 29.99 in 10.0 mi East 9.2 mph - N/A   Mostly Cloudy
8:53 AM 81.0 °F 84.9 °F 71.1 °F 72% 30.01 in 10.0 mi East 9.2 mph - N/A   Mostly Cloudy
9:53 AM 81.0 °F 84.9 °F 71.1 °F 72% 30.01 in 10.0 mi East 12.7 mph - N/A   Partly Cloudy
10:53 AM 84.0 °F 88.4 °F 70.0 °F 63% 30.03 in 10.0 mi East 15.0 mph - N/A   Mostly Cloudy
11:53 AM 82.0 °F 87.4 °F 73.0 °F 74% 30.04 in 10.0 mi SSE 5.8 mph - N/A   Mostly Cloudy
12:53 PM 84.9 °F 90.7 °F 72.0 °F 65% 30.03 in 10.0 mi ESE 10.4 mph - N/A   Overcast
1:53 PM 84.0 °F 89.0 °F 71.1 °F 65% 30.01 in 10.0 mi ESE 9.2 mph - N/A   Mostly Cloudy
2:53 PM 86.0 °F 93.0 °F 73.0 °F 65% 29.99 in 10.0 mi ESE 10.4 mph - N/A   Mostly Cloudy
3:53 PM 82.9 °F 88.8 °F 73.0 °F 72% 29.99 in 10.0 mi East 16.1 mph - 0.00 in   Mostly Cloudy
4:53 PM 82.0 °F 87.4 °F 73.0 °F 74% 29.99 in 10.0 mi East 11.5 mph - 0.00 in   Mostly Cloudy
5:47 PM 77.0 °F - 73.4 °F 89% 29.99 in 1.8 mi East 15.0 mph - 0.12 in Rain Heavy Rain
5:53 PM 77.0 °F - 73.9 °F 90% 30.00 in 7.0 mi East 11.5 mph - 0.25 in Rain Heavy Rain
6:53 PM 77.0 °F - 73.9 °F 90% 30.00 in 9.0 mi ESE 9.2 mph - 0.09 in Rain Light Rain
7:53 PM 78.1 °F - 73.0 °F 84% 30.01 in 10.0 mi East 10.4 mph - 0.00 in   Overcast
8:53 PM 79.0 °F - 72.0 °F 79% 30.03 in 10.0 mi East 8.1 mph - N/A   Overcast
9:53 PM 78.1 °F - 71.1 °F 79% 30.04 in 10.0 mi East 8.1 mph - N/A   Mostly Cloudy
10:53 PM 77.0 °F - 71.1 °F 82% 30.03 in 10.0 mi East 8.1 mph - N/A   Clear